Location: Bleiki
(46.9346°N, 8.4312°E)
Time: 19:56:06
(UTC+00:00)

Daily predictions for brighter satellites

Satellite Brightness Start Highest point End
(mag) Time Altitude Azimuth Time Altitude Azimuth Time Altitude Azimuth
Cosmos 2219 Rocket 2.2 16:06:59 10° SSW 16:12:37 74° ESE 16:18:16 10° NNE
Cosmos 2221 2.7 16:11:01 10° S 16:15:13 51° E 16:19:26 10° NNE
CZ-4B R/B 3.3 16:11:05 10° SE 16:16:13 50° ENE 16:21:20 10° N
Cosmos 1500 Rocket 3.9 16:12:12 10° N 16:16:25 45° ENE 16:20:38 10° SSE
Abrixas rocket 1.7 16:13:52 10° WNW 16:16:39 87° S 16:19:25 10° ESE
SL-16 R/B 4.1 16:13:38 10° W 16:18:10 24° NW 16:22:44 10° N
Cosmos 1939 Rocket 4.4 16:16:00 10° E 16:18:15 15° ENE 16:20:30 10° NNE
ERS-2 3.9 16:17:42 10° NE 16:19:53 15° E 16:22:03 10° SE
NOAA 12 4.3 16:15:02 10° SE 16:20:09 49° ENE 16:25:17 10° N
Cosmos 2237 Rocket 3.1 16:15:58 10° SSE 16:20:45 29° ESE 16:25:33 10° NE
ISS -2.2 16:20:18 10° SSW 16:23:05 24° SE 16:25:53 10° E
Cosmos 1869 3.4 16:20:02 10° S 16:24:04 84° W 16:28:11 10° N
USA 267 3.5 16:20:44 10° E 16:26:58 50° NNE 16:33:13 10° NW
Cosmos 2322 4.1 16:23:04 10° SW 16:28:41 66° WNW 16:34:23 10° NNE
YAOGAN 1 4.4 16:27:49 10° ENE 16:29:00 11° ENE 16:30:12 10° NE
Cosmos 540 Rocket 3.6 16:24:02 10° SSW 16:29:09 78° WNW 16:34:19 10° NNE
COSMOS 2455 4.5 16:23:49 10° NW 16:29:23 40° WSW 16:34:55 10° S
CZ-4B R/B 2.8 16:27:18 10° NE 16:29:27 17° E 16:31:35 10° SE
Cosmos 2369 Rocket 4.0 16:30:26 10° N 16:32:34 12° NNE 16:34:42 10° NE
Okean-O 4.2 16:31:40 10° E 16:34:09 15° ENE 16:36:38 10° NNE
AQUARIUS 4.2 16:30:03 10° SSE 16:34:26 56° ENE 16:38:51 10° N
NOSS 2-1 (E) 4.3 16:29:22 10° NW 16:34:28 77° NE 16:41:43 10° SE
Meteor 2-2 Rocket 4.3 16:29:24 10° S 16:35:21 74° E 16:41:15 10° NNE
Cosmos 841 Rocket 3.8 16:32:15 10° SSW 16:37:28 69° WNW 16:42:41 10° NNE
COSMO-SKYMED 1 4.0 16:34:28 10° NE 16:37:36 19° E 16:40:42 10° SE
Cosmos 1743 Rocket 3.5 16:33:55 10° N 16:38:26 77° E 16:42:52 10° SSE
Cosmos 1980 4.1 16:33:11 10° S 16:38:30 43° ESE 16:43:52 10° NE
CORIOLIS 4.2 16:33:26 10° SSE 16:38:45 63° ENE 16:44:08 10° N
Envisat 3.3 16:34:31 10° S 16:39:35 73° WSW 16:44:41 10° NNW
H-2A R/B 3.0 16:38:08 10° S 16:42:30 66° WSW 16:46:43 10° NNW
H-2A R/B 4.3 16:40:30 10° SSW 16:44:05 40° W 16:47:44 10° NNW
H-2A R/B 3.5 16:43:03 10° E 16:46:12 16° ENE 16:49:18 10° NNE
Okean O Rocket 1.5 16:42:32 10° SSE 16:46:53 76° ENE 16:51:15 10° N
Nadezhda 1 Rocket 4.0 16:40:59 10° S 16:47:14 70° E 16:53:36 10° NNE
Sich 1 3.5 16:46:07 10° N 16:50:17 39° ENE 16:54:23 10° SE
Cosmos 1842 Rocket 4.1 16:46:52 10° SSW 16:51:09 61° WNW 16:55:27 10° N
Cosmos 2292 4.3 16:50:36 10° S 16:53:36 62° E 16:57:06 10° NNE
Aureole 2 Rocket 4.5 16:51:44 10° NW 16:54:05 25° WSW 16:56:30 10° SSW
Cosmos 405 Rocket 2.9 16:50:47 10° NNW 16:54:40 80° W 16:58:36 10° S
Cosmos 2297 4.4 16:52:05 10° NNW 16:57:08 32° NE 17:02:10 10° ESE
Cosmos 2154 Rocket 4.0 16:51:31 10° N 16:57:53 87° E 17:04:15 10° S
Cosmos 1805 Rocket 3.5 16:54:16 10° N 16:58:43 64° ENE 17:03:08 10° SSE
YAOGAN 6 3.9 16:56:21 10° S 16:59:52 45° W 17:03:24 10° NNW
Cosmos 1666 Rocket 4.1 17:00:37 10° N 17:04:42 36° ENE 17:08:46 10° SE
Cosmos 2341 Rocket 4.1 16:59:05 10° N 17:05:15 56° ENE 17:11:26 10° SSE
SMAP 3.5 17:01:02 10° S 17:05:39 65° WSW 17:10:19 10° NNW
Cosmos 1943 Rocket 3.2 17:01:47 10° N 17:06:12 24° NE 17:07:55 20° ENE
Helios 1A Rocket 3.8 17:03:20 11° ESE 17:06:34 25° ENE 17:09:54 10° N
USA 281 3.4 17:00:52 10° SE 17:07:06 48° NE 17:13:21 10° NNW
SL-16 R/B 3.2 17:03:18 10° SSE 17:07:52 26° ESE 17:09:55 21° ENE
Cosmos 1151 Rocket 4.0 17:05:36 10° SE 17:09:06 25° E 17:09:51 24° ENE
ARGOS 4.3 17:15:45 21° NE 17:15:45 21° NE 17:19:29 10° NNE
NOSS 0 Rocket 4.0 17:12:09 10° SSW 17:18:24 83° WNW 17:24:41 10° NNE
Feng Yun 1-1 Rocket 4.2 17:13:11 10° SSE 17:18:59 76° ENE 17:24:41 10° NNW
Cosmos 1606 2.6 17:15:36 10° S 17:19:27 67° E 17:23:03 12° NNE
Cosmos 389 Rocket 2.4 17:16:10 10° S 17:19:32 58° E 17:21:16 26° NNE
CREW DRAGON DEMO-1 DEB 3.2 17:17:17 10° WNW 17:20:10 43° NNE 17:20:29 41° NE
Cosmos 836 Rocket 4.5 17:15:08 10° S 17:20:22 68° ESE 17:25:00 14° NNE
Cosmos 2285 Rocket 4.3 17:14:29 10° NNW 17:20:37 44° ENE 17:26:39 10° SE
CZ-2C R/B 3.4 17:15:56 10° SE 17:20:42 39° ENE 17:25:16 10° N
Cosmos 2333 Rocket 3.6 17:16:36 10° WSW 17:21:47 35° NW 17:26:58 10° NNE
H-2A R/B 3.4 17:20:59 10° N 17:24:48 37° WNW 17:28:40 10° SW
Cosmos 1867 4.0 17:20:20 10° S 17:25:24 42° ESE 17:27:32 29° ENE
SKYMED 2 3.6 17:22:23 14° NNE 17:25:59 56° E 17:30:14 10° S
Meteor 1-20 Rocket 4.3 17:20:43 10° N 17:26:29 56° ENE 17:32:13 10° SSE
COSMOS 2428 3.9 17:21:35 10° WSW 17:26:58 40° NW 17:32:22 10° NNE
Cosmos 1818 4.2 17:27:04 10° NW 17:32:27 58° WSW 17:37:46 10° SSE
SL-8 Rocket 3.9 17:27:00 10° N 17:33:14 69° E 17:39:27 10° SSE
Lacrosse 5 rocket 3.2 17:32:10 10° SSE 17:33:15 14° SSE 17:33:15 14° SSE
Cosmos 2278 Rocket 3.3 17:30:04 10° NW 17:35:27 46° WSW 17:40:49 10° S
Cosmos 1633 Rocket 3.0 17:32:04 10° N 17:36:26 62° E 17:40:45 10° SSE
USA 215 3.2 17:32:16 24° NE 17:36:33 89° NW 17:43:07 10° SW
Cosmos 2181 Rocket 4.0 17:31:03 10° S 17:37:24 65° E 17:43:43 10° NNE
CZ-4 R/B 1.4 17:37:52 49° E 17:38:13 51° ENE 17:42:06 10° N
EO 1 Delta rocket 4.3 17:33:19 10° NNE 17:38:26 58° E 17:44:44 10° S
SAR-Lupe-4 3.4 17:40:58 45° NNE 17:41:59 82° ESE 17:45:34 10° SSW
Meteor 1-25 Rocket 4.1 17:37:11 10° N 17:42:47 71° ENE 17:48:25 10° SSE
Cosmos 1959 Rocket 4.4 17:36:28 10° N 17:42:49 67° E 17:49:09 10° SSE
CZ-2D R/B 3.1 17:42:03 10° SSE 17:45:50 90° S 17:49:42 10° NNW
BREEZE-M DEB (TANK) 3.6 17:47:31 10° WSW 17:48:48 28° WSW 17:48:48 28° WSW
IRS-1C Rocket 4.2 17:46:02 10° S 17:51:19 76° WSW 17:56:38 10° NNW
Abrixas rocket 4.1 17:49:13 10° W 17:51:21 20° SSW 17:51:40 19° SSW
Cosmos 1689 Rocket 4.1 17:53:50 20° SSW 17:53:50 20° SSW 17:54:54 10° SSW
Cosmos 1356 4.4 17:48:41 10° NNW 17:52:00 47° W 17:55:17 10° S
Cosmos 1939 Rocket 3.5 17:49:00 10° S 17:52:46 52° W 17:56:35 10° NNW
ERS-2 3.2 17:50:53 15° N 17:53:39 43° WNW 17:57:07 10° SW
CSL-04 Debris 4.3 17:51:53 36° ESE 17:53:43 51° ENE 17:59:02 10° N
Cosmos 44 3.5 17:49:13 10° NNW 17:54:26 60° NE 17:55:25 51° E
DEBRIS 3.9 17:39:48 10° W 17:54:52 73° N 17:56:23 47° ENE
Cosmos 2219 Rocket 4.2 17:52:42 10° W 17:57:09 23° NW 18:01:38 10° N
SL-08 R/B 4.4 17:52:44 10° N 17:58:49 55° ENE 18:04:48 10° SSE
SAR-Lupe-1 4.4 17:58:34 54° NNW 17:59:09 65° WNW 18:02:41 10° SSW
ISS -3.1 17:56:19 10° WSW 17:59:04 53° W 17:59:04 53° W
CZ-4B R/B 3.5 18:00:04 16° NNW 18:01:42 24° WNW 18:04:15 10° SW
YAOGAN 1 2.4 18:03:51 68° SSE 18:04:23 84° ENE 18:08:44 10° NNW
Cosmos 2237 Rocket 3.0 17:59:08 10° SW 18:04:34 48° NW 18:08:37 18° NNE
USA 267 3.4 18:05:49 25° SE 18:09:50 73° SW 18:16:22 10° NW
Okean-O 2.8 18:05:39 10° S 18:10:05 72° WSW 18:14:31 10° NNW
COSMO-SKYMED 1 3.5 18:10:59 18° N 18:14:00 47° WNW 18:18:09 10° SW
Cosmos 2218 Rocket 4.2 18:10:48 10° NNW 18:16:55 69° W 18:23:00 10° S
Cosmos 2369 Rocket 2.9 18:12:40 10° NNW 18:16:39 37° NNE 18:16:39 37° NNE
CSL-04 Rocket 3.5 18:18:45 76° ENE 18:18:45 76° ENE 18:24:05 10° NNW
H-2A R/B 2.0 18:23:35 52° S 18:24:57 87° WSW 18:30:13 10° NNW
Cosmos 2366 rocket 4.5 18:23:15 10° NNW 18:29:21 59° W 18:35:21 10° S
Meteor 1-14 Rocket 4.3 18:29:46 10° NNW 18:35:42 80° W 18:38:09 38° S
Cosmos 773 Rocket 4.3 18:32:26 10° SSW 18:36:42 60° SW 18:36:42 60° SW
Cosmos 2297 4.5 18:36:03 10° NW 18:41:32 50° WSW 18:44:22 27° S
Cosmos 1943 Rocket 2.6 18:44:57 10° NNW 18:49:30 57° WNW 18:49:30 57° WNW
SL-16 R/B 2.7 18:46:05 10° SW 18:51:37 55° WNW 18:51:51 55° NW
USA 281 4.4 18:45:38 10° S 18:51:41 39° WSW 18:57:48 10° NW
MOS 1 Rocket 4.4 18:53:31 43° NW 18:54:36 50° WNW 18:59:49 10° SW
ARGOS 4.2 18:57:16 39° NNW 18:57:16 39° NNW 19:00:42 10° NNW
CZ-4 R/B 4.3 19:13:54 14° W 19:13:54 14° W 19:15:50 10° NW
USA 215 4.0 19:19:37 44° NNW 19:19:37 44° NNW 19:25:21 10° W
